VTK503 UTDD-URSS

Flight info

Callsign VTK503
Flight time 3h 44m
Altitude 38000
Route AKVEZ1J AKVEZ A362 BUTRA Z407 USETU Z514 NAKUK N144 RENHE Q169 EKDUP N193 AKT N154 ITAKA R227 BEMES A944 GUBOR G487 BINOL BINOL1K
Aircraft A319/M-SDE3FGHIRWY/LB1

Departure

Time 2026-04-22 07:11
Airport Dushanbe International Airport (UTDD)

Arrival

Time 2026-04-22 10:56
Airport Sochi International Airport (URSS)
Time Latitude Longitude Altitude Speed Heading
2026-04-22 06:52 38.54790 68.81488 2582 ft 0 kts 20°
2026-04-22 07:01 38.54789 68.81487 2582 ft 2 kts 20°
2026-04-22 07:01 38.54774 68.81480 2581 ft 2 kts 20°
2026-04-22 07:02 38.54758 68.81472 2580 ft 2 kts 22°
2026-04-22 07:02 38.54743 68.81464 2575 ft 2 kts 23°
2026-04-22 07:02 38.54728 68.81456 2578 ft 2 kts 26°
2026-04-22 07:02 38.54713 68.81446 2575 ft 2 kts 31°
2026-04-22 07:03 38.54699 68.81434 2580 ft 2 kts 45°
2026-04-22 07:03 38.54690 68.81417 2580 ft 2 kts 91°
2026-04-22 07:03 38.54690 68.81412 2580 ft 0 kts 90°
2026-04-22 07:05 38.54690 68.81426 2581 ft 4 kts 90°
2026-04-22 07:05 38.54689 68.81489 2582 ft 10 kts 90°
2026-04-22 07:05 38.54697 68.81580 2582 ft 11 kts 77°
2026-04-22 07:05 38.54699 68.81678 2582 ft 11 kts 91°
2026-04-22 07:06 38.54699 68.81781 2582 ft 11 kts 90°
2026-04-22 07:06 38.54698 68.81881 2582 ft 11 kts 90°
2026-04-22 07:06 38.54698 68.81980 2582 ft 11 kts 90°
2026-04-22 07:06 38.54697 68.82077 2582 ft 11 kts 90°
2026-04-22 07:07 38.54697 68.82183 2582 ft 14 kts 90°
2026-04-22 07:07 38.54697 68.82330 2582 ft 19 kts 90°
2026-04-22 07:07 38.54689 68.82503 2582 ft 20 kts 94°
2026-04-22 07:07 38.54688 68.82675 2580 ft 19 kts 90°
2026-04-22 07:08 38.54688 68.82842 2582 ft 19 kts 90°
2026-04-22 07:08 38.54687 68.83004 2582 ft 18 kts 91°
2026-04-22 07:08 38.54686 68.83163 2582 ft 18 kts 90°
2026-04-22 07:08 38.54670 68.83284 2578 ft 10 kts 142°
2026-04-22 07:09 38.54600 68.83290 2580 ft 10 kts 180°
2026-04-22 07:09 38.54523 68.83289 2577 ft 12 kts 180°
2026-04-22 07:09 38.54431 68.83288 2581 ft 13 kts 179°
2026-04-22 07:09 38.54366 68.83240 2578 ft 12 kts 266°
2026-04-22 07:10 38.54367 68.83133 2582 ft 12 kts 270°
2026-04-22 07:10 38.54368 68.82999 2582 ft 31 kts 270°
2026-04-22 07:10 38.54370 68.82392 2578 ft 101 kts 270°
2026-04-22 07:10 38.54369 68.81241 2580 ft 155 kts 270°
2026-04-22 07:11 38.54381 68.79787 2971 ft 162 kts 271°
2026-04-22 07:11 38.54383 68.78337 3510 ft 164 kts 268°
2026-04-22 07:11 38.54364 68.76877 4083 ft 165 kts 267°
2026-04-22 07:11 38.54340 68.75369 4475 ft 179 kts 268°
2026-04-22 07:12 38.54314 68.73675 4738 ft 202 kts 269°
2026-04-22 07:12 38.54287 68.71768 4989 ft 228 kts 269°
2026-04-22 07:12 38.54256 68.69641 5365 ft 252 kts 269°
2026-04-22 07:12 38.54220 68.67303 5884 ft 271 kts 269°
2026-04-22 07:13 38.54183 68.64867 6730 ft 276 kts 269°
2026-04-22 07:13 38.54147 68.62406 7650 ft 278 kts 268°
2026-04-22 07:13 38.54108 68.59940 8634 ft 277 kts 267°
2026-04-22 07:13 38.54072 68.57482 9638 ft 277 kts 266°
2026-04-22 07:14 38.54033 68.54990 10268 ft 290 kts 266°
2026-04-22 07:14 38.53985 68.52318 10657 ft 308 kts 266°
2026-04-22 07:14 38.53936 68.49549 11351 ft 315 kts 266°
2026-04-22 07:14 38.53890 68.46734 12123 ft 319 kts 266°
2026-04-22 07:15 38.54105 68.43881 12874 ft 329 kts 282°
2026-04-22 07:15 38.55097 68.41205 13607 ft 342 kts 302°
2026-04-22 07:15 38.56859 68.39090 14269 ft 356 kts 324°
2026-04-22 07:15 38.59180 68.37895 14942 ft 367 kts 343°
2026-04-22 07:16 38.61686 68.37174 15623 ft 371 kts 344°
2026-04-22 07:16 38.64215 68.36470 16282 ft 375 kts 344°
2026-04-22 07:16 38.66779 68.35761 16908 ft 379 kts 344°
2026-04-22 07:16 38.69375 68.35039 17493 ft 384 kts 344°
2026-04-22 07:17 38.71991 68.34319 18022 ft 387 kts 346°
2026-04-22 07:17 38.74688 68.33882 18542 ft 394 kts 350°
2026-04-22 07:17 38.77418 68.33492 19049 ft 395 kts 350°
2026-04-22 07:17 38.80165 68.33096 19584 ft 399 kts 349°
2026-04-22 07:18 38.82946 68.32690 20114 ft 403 kts 349°
2026-04-22 07:18 38.85782 68.32277 20626 ft 407 kts 349°
2026-04-22 07:18 38.88548 68.31577 21113 ft 404 kts 338°
2026-04-22 07:18 38.91121 68.30190 21603 ft 399 kts 326°
2026-04-22 07:19 38.93399 68.28201 22130 ft 395 kts 314°
2026-04-22 07:19 38.95322 68.25721 22538 ft 390 kts 303°
2026-04-22 07:19 38.96866 68.22875 23003 ft 388 kts 297°
2026-04-22 07:19 38.98350 68.19967 23501 ft 390 kts 297°
2026-04-22 07:20 38.99844 68.17047 23938 ft 392 kts 297°
2026-04-22 07:20 39.01351 68.14115 24341 ft 394 kts 297°
2026-04-22 07:20 39.02870 68.11169 24735 ft 396 kts 297°
2026-04-22 07:20 39.04391 68.08217 25125 ft 397 kts 297°
2026-04-22 07:21 39.05919 68.05240 25517 ft 399 kts 297°
2026-04-22 07:21 39.07453 68.02249 25941 ft 402 kts 297°
2026-04-22 07:21 39.08992 67.99244 26366 ft 404 kts 297°
2026-04-22 07:21 39.10539 67.96218 26732 ft 405 kts 297°
2026-04-22 07:22 39.12092 67.93178 27073 ft 407 kts 296°
2026-04-22 07:22 39.13649 67.90125 27412 ft 409 kts 296°
2026-04-22 07:22 39.15214 67.87055 27769 ft 412 kts 296°
2026-04-22 07:22 39.16789 67.83963 28130 ft 414 kts 296°
2026-04-22 07:23 39.18372 67.80852 28455 ft 416 kts 296°
2026-04-22 07:23 39.19958 67.77729 28801 ft 417 kts 296°
2026-04-22 07:23 39.21552 67.74589 29189 ft 420 kts 296°
2026-04-22 07:23 39.23154 67.71428 29581 ft 422 kts 296°
2026-04-22 07:24 39.24764 67.68245 29920 ft 424 kts 296°
2026-04-22 07:24 39.26380 67.65050 30205 ft 426 kts 296°
2026-04-22 07:24 39.28007 67.61839 30490 ft 428 kts 296°
2026-04-22 07:24 39.29638 67.58621 30771 ft 430 kts 296°
2026-04-22 07:25 39.31280 67.55380 31061 ft 432 kts 296°
2026-04-22 07:25 39.32926 67.52123 31350 ft 434 kts 295°
2026-04-22 07:25 39.34575 67.48845 31628 ft 435 kts 294°
2026-04-22 07:25 39.35988 67.45378 31905 ft 427 kts 285°
2026-04-22 07:26 39.37116 67.41899 32244 ft 425 kts 284°
2026-04-22 07:26 39.38271 67.38333 32619 ft 424 kts 284°
2026-04-22 07:26 39.39412 67.34822 32989 ft 424 kts 284°
2026-04-22 07:26 39.40172 67.32496 33253 ft 423 kts 284°
2026-04-22 07:27 39.41313 67.29006 33651 ft 421 kts 284°
2026-04-22 07:27 39.42834 67.24346 34148 ft 419 kts 284°
2026-04-22 07:27 39.44026 67.20899 34475 ft 420 kts 286°
2026-04-22 07:27 39.45298 67.17491 34790 ft 421 kts 287°
2026-04-22 07:28 39.47499 67.11881 35298 ft 420 kts 288°
2026-04-22 07:28 39.48824 67.08525 35599 ft 419 kts 287°
2026-04-22 07:28 39.50135 67.05161 35885 ft 417 kts 287°
2026-04-22 07:29 39.51424 67.01800 36169 ft 416 kts 287°
2026-04-22 07:29 39.52696 66.98434 36440 ft 415 kts 286°
2026-04-22 07:29 39.53952 66.95078 36720 ft 414 kts 286°
2026-04-22 07:29 39.55206 66.91719 36980 ft 414 kts 286°
2026-04-22 07:30 39.56463 66.88361 37229 ft 414 kts 286°
2026-04-22 07:30 39.57721 66.85013 37468 ft 413 kts 286°
2026-04-22 07:30 39.58981 66.81661 37711 ft 413 kts 286°
2026-04-22 07:30 39.60254 66.78265 37849 ft 413 kts 286°
2026-04-22 07:31 39.62741 66.71639 37870 ft 410 kts 286°
2026-04-22 07:31 39.65248 66.64938 37865 ft 410 kts 286°
2026-04-22 07:32 39.67736 66.58264 37865 ft 411 kts 286°
2026-04-22 07:32 39.70227 66.51574 37860 ft 411 kts 286°
2026-04-22 07:33 39.72712 66.44882 37859 ft 412 kts 286°
2026-04-22 07:33 39.75238 66.38195 37861 ft 415 kts 288°
2026-04-22 07:34 39.78141 66.31669 37858 ft 419 kts 291°
2026-04-22 07:34 39.81201 66.25198 37857 ft 420 kts 291°
2026-04-22 07:35 39.84194 66.18691 37858 ft 419 kts 290°
2026-04-22 07:35 39.87124 66.12132 37857 ft 419 kts 290°
2026-04-22 07:36 39.90045 66.05558 37859 ft 420 kts 290°
2026-04-22 07:36 39.92977 65.98976 37853 ft 420 kts 290°
2026-04-22 07:37 39.95913 65.92378 37855 ft 421 kts 290°
2026-04-22 07:37 39.98853 65.85780 37865 ft 421 kts 291°
2026-04-22 07:38 40.01790 65.79183 37865 ft 421 kts 291°
2026-04-22 07:38 40.04715 65.72577 37866 ft 420 kts 290°
2026-04-22 07:39 40.07656 65.65926 37866 ft 420 kts 290°
2026-04-22 07:39 40.10563 65.59316 37870 ft 419 kts 290°
2026-04-22 07:40 40.13468 65.52702 37875 ft 420 kts 290°
2026-04-22 07:40 40.16374 65.46093 37878 ft 419 kts 290°
2026-04-22 07:41 40.19273 65.39483 37882 ft 419 kts 290°
2026-04-22 07:41 40.22168 65.32860 37884 ft 419 kts 290°
2026-04-22 07:42 40.25054 65.26241 37883 ft 419 kts 290°
2026-04-22 07:42 40.27930 65.19619 37880 ft 418 kts 290°
2026-04-22 07:43 40.30801 65.12989 37880 ft 418 kts 290°
2026-04-22 07:43 40.33672 65.06365 37870 ft 418 kts 290°
2026-04-22 07:44 40.36540 64.99739 37868 ft 418 kts 290°
2026-04-22 07:44 40.39407 64.93101 37864 ft 418 kts 290°
2026-04-22 07:45 40.42271 64.86462 37867 ft 418 kts 290°
2026-04-22 07:45 40.45132 64.79808 37867 ft 418 kts 290°
2026-04-22 07:46 40.47988 64.73149 37864 ft 418 kts 290°
2026-04-22 07:46 40.50854 64.66437 37863 ft 418 kts 290°
2026-04-22 07:47 40.53692 64.59765 37865 ft 418 kts 290°
2026-04-22 07:47 40.56534 64.53090 37865 ft 418 kts 290°
2026-04-22 07:48 40.59377 64.46413 37861 ft 418 kts 290°
2026-04-22 07:48 40.62213 64.39727 37861 ft 418 kts 290°
2026-04-22 07:49 40.65041 64.33032 37850 ft 419 kts 290°
2026-04-22 07:49 40.67869 64.26328 37859 ft 419 kts 290°
2026-04-22 07:50 40.70696 64.19604 37856 ft 420 kts 290°
2026-04-22 07:50 40.73528 64.12873 37871 ft 420 kts 290°
2026-04-22 07:51 40.76353 64.06133 37866 ft 420 kts 290°
2026-04-22 07:51 40.79182 63.99387 37870 ft 420 kts 290°
2026-04-22 07:52 40.81998 63.92636 37875 ft 420 kts 290°
2026-04-22 07:52 40.84808 63.85877 37873 ft 420 kts 290°
2026-04-22 07:53 40.87617 63.79119 37877 ft 420 kts 290°
2026-04-22 07:53 40.90426 63.72348 37880 ft 420 kts 290°
2026-04-22 07:54 40.93230 63.65569 37882 ft 420 kts 290°
2026-04-22 07:54 40.96033 63.58786 37883 ft 420 kts 290°
2026-04-22 07:55 40.98829 63.51996 37883 ft 420 kts 290°
2026-04-22 07:55 41.01632 63.45159 37882 ft 420 kts 290°
2026-04-22 07:56 41.04419 63.38369 37882 ft 420 kts 290°
2026-04-22 07:56 41.07202 63.31580 37882 ft 419 kts 290°
2026-04-22 07:57 41.09980 63.24789 37881 ft 419 kts 290°
2026-04-22 07:57 41.12773 63.18016 37880 ft 419 kts 290°
2026-04-22 07:58 41.15567 63.11235 37882 ft 418 kts 290°
2026-04-22 07:58 41.18346 63.04448 37881 ft 418 kts 290°
2026-04-22 07:59 41.21118 62.97666 37883 ft 418 kts 289°
2026-04-22 07:59 41.23898 62.90869 37879 ft 418 kts 289°
2026-04-22 08:00 41.26666 62.84070 37884 ft 418 kts 289°
2026-04-22 08:00 41.28977 62.78372 37885 ft 418 kts 289°
2026-04-22 08:01 41.31733 62.71559 37885 ft 418 kts 289°
2026-04-22 08:01 41.34939 62.63632 37889 ft 418 kts 289°
2026-04-22 08:02 41.37689 62.56811 37886 ft 418 kts 289°
2026-04-22 08:02 41.39991 62.51089 37883 ft 418 kts 289°
2026-04-22 08:03 41.42717 62.44256 37888 ft 418 kts 289°
2026-04-22 08:03 41.45413 62.37404 37887 ft 418 kts 288°
2026-04-22 08:04 41.48103 62.30535 37887 ft 418 kts 288°
2026-04-22 08:04 41.50798 62.23664 37882 ft 418 kts 288°
2026-04-22 08:05 41.53490 62.16797 37876 ft 418 kts 288°
2026-04-22 08:05 41.56188 62.09919 37876 ft 418 kts 288°
2026-04-22 08:06 41.58871 62.03034 37869 ft 418 kts 288°
2026-04-22 08:06 41.61555 61.96131 37858 ft 419 kts 288°
2026-04-22 08:07 41.64238 61.89217 37853 ft 419 kts 288°
2026-04-22 08:07 41.66923 61.82281 37854 ft 420 kts 288°
2026-04-22 08:08 41.69627 61.75285 37856 ft 421 kts 288°
2026-04-22 08:08 41.72313 61.68329 37856 ft 421 kts 288°
2026-04-22 08:09 41.74999 61.61349 37857 ft 422 kts 288°
2026-04-22 08:09 41.77676 61.54352 37859 ft 422 kts 288°
2026-04-22 08:10 41.80359 61.47346 37863 ft 423 kts 288°
2026-04-22 08:10 41.83038 61.40331 37864 ft 423 kts 288°
2026-04-22 08:11 41.85710 61.33304 37867 ft 423 kts 287°
2026-04-22 08:11 41.88377 61.26267 37867 ft 423 kts 287°
2026-04-22 08:12 41.91045 61.19223 37873 ft 423 kts 288°
2026-04-22 08:12 41.93714 61.12171 37869 ft 423 kts 287°
2026-04-22 08:13 41.96376 61.05117 37868 ft 423 kts 287°
2026-04-22 08:13 41.99033 60.98053 37870 ft 423 kts 287°
2026-04-22 08:14 42.01687 60.90985 37873 ft 423 kts 287°
2026-04-22 08:14 42.04339 60.83912 37870 ft 423 kts 287°
2026-04-22 08:15 42.06981 60.76842 37874 ft 423 kts 287°
2026-04-22 08:15 42.09636 60.69703 37869 ft 423 kts 287°
2026-04-22 08:16 42.12249 60.62658 37869 ft 423 kts 287°
2026-04-22 08:16 42.14894 60.55517 37866 ft 423 kts 288°
2026-04-22 08:17 42.17523 60.48420 37870 ft 423 kts 288°
2026-04-22 08:17 42.20148 60.41318 37877 ft 423 kts 288°
2026-04-22 08:18 42.22765 60.34209 37866 ft 423 kts 288°
2026-04-22 08:18 42.25373 60.27097 37874 ft 423 kts 288°
2026-04-22 08:19 42.27979 60.19974 37871 ft 423 kts 288°
2026-04-22 08:19 42.30577 60.12847 37874 ft 423 kts 288°
2026-04-22 08:20 42.33173 60.05711 37871 ft 423 kts 288°
2026-04-22 08:20 42.35777 59.98567 37869 ft 423 kts 288°
2026-04-22 08:21 42.38373 59.91417 37869 ft 424 kts 288°
2026-04-22 08:21 42.40959 59.84255 37863 ft 424 kts 288°
2026-04-22 08:22 42.43542 59.77081 37864 ft 424 kts 288°
2026-04-22 08:22 42.46123 59.69902 37860 ft 424 kts 288°
2026-04-22 08:23 42.48702 59.62710 37866 ft 424 kts 288°
2026-04-22 08:23 42.51439 59.55529 37862 ft 427 kts 290°
2026-04-22 08:24 42.54327 59.48476 37860 ft 428 kts 291°
2026-04-22 08:24 42.57213 59.41411 37867 ft 428 kts 291°
2026-04-22 08:25 42.60048 59.34317 37864 ft 427 kts 290°
2026-04-22 08:25 42.62854 59.27202 37870 ft 427 kts 290°
2026-04-22 08:26 42.65660 59.20087 37870 ft 427 kts 290°
2026-04-22 08:26 42.68474 59.12970 37870 ft 428 kts 290°
2026-04-22 08:27 42.71286 59.05845 37866 ft 427 kts 290°
2026-04-22 08:27 42.74092 58.98718 37863 ft 428 kts 291°
2026-04-22 08:28 42.76767 58.91531 37865 ft 420 kts 283°
2026-04-22 08:28 42.78123 58.83926 37866 ft 412 kts 274°
2026-04-22 08:29 42.79221 58.76274 37870 ft 412 kts 274°
2026-04-22 08:29 42.80327 58.68615 37870 ft 412 kts 274°
2026-04-22 08:30 42.81436 58.60956 37869 ft 412 kts 274°
2026-04-22 08:30 42.82537 58.53294 37867 ft 412 kts 274°
2026-04-22 08:31 42.83621 58.45622 37876 ft 412 kts 274°
2026-04-22 08:32 42.85256 58.34067 37875 ft 412 kts 274°
2026-04-22 08:32 42.86340 58.26384 37880 ft 413 kts 274°
2026-04-22 08:33 42.87232 58.20001 37887 ft 412 kts 274°
2026-04-22 08:33 42.88292 58.12314 37878 ft 413 kts 274°
2026-04-22 08:34 42.89349 58.04626 37884 ft 413 kts 274°
2026-04-22 08:34 42.90411 57.96934 37882 ft 413 kts 275°
2026-04-22 08:35 42.91472 57.89248 37879 ft 412 kts 274°
2026-04-22 08:35 42.92686 57.80254 37886 ft 412 kts 274°
2026-04-22 08:36 42.93551 57.73863 37883 ft 412 kts 274°
2026-04-22 08:36 42.94596 57.66172 37883 ft 412 kts 274°
2026-04-22 08:37 42.95628 57.58429 37889 ft 412 kts 274°
2026-04-22 08:37 42.96658 57.50733 37893 ft 412 kts 274°
2026-04-22 08:38 42.97682 57.43045 37888 ft 412 kts 274°
2026-04-22 08:38 42.98696 57.35349 37892 ft 412 kts 274°
2026-04-22 08:39 42.99705 57.27651 37889 ft 412 kts 274°
2026-04-22 08:39 43.00706 57.19954 37891 ft 412 kts 274°
2026-04-22 08:40 43.01712 57.12242 37887 ft 412 kts 274°
2026-04-22 08:40 43.02704 57.04529 37885 ft 412 kts 274°
2026-04-22 08:41 43.03687 56.96804 37889 ft 413 kts 274°
2026-04-22 08:41 43.04671 56.89080 37886 ft 413 kts 274°
2026-04-22 08:42 43.05657 56.81342 37885 ft 413 kts 274°
2026-04-22 08:42 43.06640 56.73598 37887 ft 413 kts 274°
2026-04-22 08:43 43.07619 56.65851 37893 ft 414 kts 274°
2026-04-22 08:43 43.08582 56.58091 37897 ft 414 kts 274°
2026-04-22 08:44 43.09543 56.50280 37897 ft 414 kts 274°
2026-04-22 08:44 43.10493 56.42565 37899 ft 414 kts 274°
2026-04-22 08:45 43.11453 56.34752 37899 ft 414 kts 274°
2026-04-22 08:45 43.12400 56.26976 37905 ft 414 kts 274°
2026-04-22 08:46 43.13340 56.19199 37905 ft 414 kts 274°
2026-04-22 08:46 43.14275 56.11425 37907 ft 414 kts 274°
2026-04-22 08:47 43.15211 56.03639 37909 ft 414 kts 275°
2026-04-22 08:47 43.16215 55.95867 37907 ft 416 kts 277°
2026-04-22 08:48 43.17512 55.88133 37909 ft 417 kts 279°
2026-04-22 08:48 43.18881 55.80406 37907 ft 417 kts 278°
2026-04-22 08:49 43.20192 55.72658 37910 ft 417 kts 278°
2026-04-22 08:49 43.21451 55.64902 37910 ft 417 kts 278°
2026-04-22 08:50 43.22703 55.57143 37918 ft 417 kts 278°
2026-04-22 08:50 43.23960 55.49383 37914 ft 417 kts 278°
2026-04-22 08:51 43.25207 55.41618 37918 ft 417 kts 278°
2026-04-22 08:51 43.26456 55.33852 37919 ft 417 kts 278°
2026-04-22 08:52 43.27715 55.26031 37929 ft 417 kts 278°
2026-04-22 08:52 43.28954 55.18260 37926 ft 417 kts 278°
2026-04-22 08:53 43.30185 55.10494 37928 ft 416 kts 278°
2026-04-22 08:53 43.31406 55.02728 37929 ft 416 kts 278°
2026-04-22 08:54 43.32626 54.94956 37934 ft 416 kts 278°
2026-04-22 08:54 43.33841 54.87187 37934 ft 416 kts 278°
2026-04-22 08:55 43.35046 54.79422 37943 ft 416 kts 278°
2026-04-22 08:55 43.36251 54.71661 37937 ft 415 kts 278°
2026-04-22 08:56 43.37442 54.63892 37936 ft 415 kts 278°
2026-04-22 08:56 43.38627 54.56128 37940 ft 415 kts 278°
2026-04-22 08:57 43.39814 54.48369 37934 ft 415 kts 278°
2026-04-22 08:57 43.40996 54.40609 37934 ft 415 kts 278°
2026-04-22 08:58 43.42172 54.32843 37942 ft 415 kts 278°
2026-04-22 08:58 43.43340 54.25082 37937 ft 415 kts 278°
2026-04-22 08:59 43.44505 54.17310 37943 ft 415 kts 278°
2026-04-22 08:59 43.45660 54.09535 37948 ft 415 kts 278°
2026-04-22 09:00 43.46806 54.01753 37949 ft 415 kts 278°
2026-04-22 09:00 43.47961 53.93928 37947 ft 414 kts 278°
2026-04-22 09:01 43.49097 53.86147 37950 ft 414 kts 278°
2026-04-22 09:01 43.50231 53.78367 37948 ft 414 kts 278°
2026-04-22 09:02 43.51364 53.70596 37946 ft 414 kts 278°
2026-04-22 09:02 43.52483 53.62824 37948 ft 413 kts 278°
2026-04-22 09:03 43.53592 53.55053 37953 ft 413 kts 278°
2026-04-22 09:03 43.54692 53.47290 37954 ft 413 kts 278°
2026-04-22 09:04 43.55792 53.39533 37953 ft 412 kts 278°
2026-04-22 09:04 43.56879 53.31771 37954 ft 412 kts 278°
2026-04-22 09:05 43.57970 53.24006 37951 ft 412 kts 278°
2026-04-22 09:05 43.59066 53.16255 37952 ft 412 kts 278°
2026-04-22 09:06 43.60145 53.08498 37947 ft 412 kts 278°
2026-04-22 09:06 43.61228 53.00745 37949 ft 412 kts 278°
2026-04-22 09:07 43.62307 52.92996 37945 ft 411 kts 278°
2026-04-22 09:07 43.63376 52.85235 37945 ft 411 kts 278°
2026-04-22 09:08 43.64259 52.78738 37953 ft 411 kts 278°
2026-04-22 09:08 43.65305 52.70980 37941 ft 411 kts 278°
2026-04-22 09:09 43.66358 52.63224 37939 ft 411 kts 278°
2026-04-22 09:09 43.67403 52.55462 37942 ft 411 kts 278°
2026-04-22 09:10 43.68431 52.47695 37944 ft 411 kts 278°
2026-04-22 09:10 43.69456 52.39937 37946 ft 411 kts 278°
2026-04-22 09:11 43.70524 52.32183 37950 ft 411 kts 278°
2026-04-22 09:11 43.71613 52.24433 37945 ft 411 kts 278°
2026-04-22 09:12 43.72684 52.16680 37946 ft 411 kts 278°
2026-04-22 09:12 43.73753 52.08922 37938 ft 411 kts 278°
2026-04-22 09:13 43.74808 52.01163 37943 ft 410 kts 278°
2026-04-22 09:13 43.75856 51.93355 37941 ft 410 kts 278°
2026-04-22 09:14 43.76899 51.85596 37955 ft 410 kts 278°
2026-04-22 09:14 43.77935 51.77840 37947 ft 410 kts 278°
2026-04-22 09:15 43.78966 51.70081 37951 ft 410 kts 278°
2026-04-22 09:15 43.79995 51.62319 37949 ft 410 kts 278°
2026-04-22 09:16 43.81018 51.54563 37950 ft 410 kts 278°
2026-04-22 09:16 43.82041 51.46810 37958 ft 409 kts 278°
2026-04-22 09:17 43.83053 51.39050 37958 ft 409 kts 277°
2026-04-22 09:17 43.84051 51.31297 37961 ft 409 kts 277°
2026-04-22 09:18 43.85045 51.23547 37960 ft 409 kts 277°
2026-04-22 09:18 43.86038 51.15793 37963 ft 408 kts 277°
2026-04-22 09:19 43.87025 51.08048 37959 ft 408 kts 277°
2026-04-22 09:19 43.87286 51.00246 37961 ft 405 kts 268°
2026-04-22 09:20 43.87330 50.92441 37962 ft 405 kts 268°
2026-04-22 09:20 43.87370 50.84640 37967 ft 405 kts 268°
2026-04-22 09:21 43.87411 50.76793 37969 ft 404 kts 268°
2026-04-22 09:21 43.87448 50.69001 37971 ft 404 kts 268°
2026-04-22 09:22 43.87484 50.61214 37974 ft 404 kts 268°
2026-04-22 09:22 43.87505 50.53438 37969 ft 404 kts 268°
2026-04-22 09:23 43.87518 50.45660 37970 ft 403 kts 268°
2026-04-22 09:23 43.87533 50.37890 37971 ft 403 kts 268°
2026-04-22 09:24 43.87550 50.30118 37973 ft 403 kts 268°
2026-04-22 09:24 43.87556 50.22356 37970 ft 403 kts 268°
2026-04-22 09:25 43.87550 50.14598 37967 ft 403 kts 268°
2026-04-22 09:25 43.87536 50.06838 37971 ft 402 kts 268°
2026-04-22 09:26 43.87523 49.99086 37970 ft 402 kts 268°
2026-04-22 09:26 43.87509 49.91334 37970 ft 402 kts 268°
2026-04-22 09:27 43.87487 49.83590 37967 ft 402 kts 268°
2026-04-22 09:27 43.87458 49.75786 37966 ft 402 kts 267°
2026-04-22 09:28 43.87425 49.68045 37966 ft 402 kts 267°
2026-04-22 09:28 43.87390 49.60302 37963 ft 402 kts 267°
2026-04-22 09:29 43.87348 49.52560 37964 ft 402 kts 267°
2026-04-22 09:29 43.87307 49.44825 37960 ft 402 kts 267°
2026-04-22 09:30 43.87295 49.37080 37963 ft 402 kts 268°
2026-04-22 09:30 43.87286 49.29343 37965 ft 402 kts 267°
2026-04-22 09:31 43.87254 49.21606 37959 ft 402 kts 267°
2026-04-22 09:31 43.87214 49.13865 37960 ft 402 kts 267°
2026-04-22 09:32 43.87182 49.06128 37959 ft 401 kts 267°
2026-04-22 09:32 43.87143 48.98392 37957 ft 401 kts 267°
2026-04-22 09:33 43.87098 48.90657 37954 ft 401 kts 267°
2026-04-22 09:33 43.87045 48.82927 37952 ft 401 kts 267°
2026-04-22 09:34 43.86976 48.75189 37949 ft 401 kts 267°
2026-04-22 09:34 43.86897 48.67462 37948 ft 401 kts 267°
2026-04-22 09:35 43.86776 48.55865 37947 ft 401 kts 267°
2026-04-22 09:35 43.86702 48.48081 37945 ft 401 kts 267°
2026-04-22 09:36 43.86624 48.40352 37942 ft 401 kts 267°
2026-04-22 09:36 43.86529 48.32631 37943 ft 401 kts 266°
2026-04-22 09:37 43.86431 48.24909 37941 ft 401 kts 267°
2026-04-22 09:37 43.86334 48.17197 37939 ft 400 kts 266°
2026-04-22 09:38 43.86228 48.09487 37937 ft 400 kts 266°
2026-04-22 09:38 43.86114 48.01778 37939 ft 400 kts 266°
2026-04-22 09:39 43.85996 47.94085 37935 ft 399 kts 266°
2026-04-22 09:39 43.85880 47.86395 37936 ft 399 kts 266°
2026-04-22 09:40 43.85782 47.80005 37931 ft 399 kts 266°
2026-04-22 09:40 43.85657 47.72278 37928 ft 398 kts 266°
2026-04-22 09:41 43.85521 47.64608 37925 ft 398 kts 266°
2026-04-22 09:41 43.85371 47.56945 37923 ft 398 kts 266°
2026-04-22 09:42 43.85227 47.49285 37914 ft 398 kts 266°
2026-04-22 09:42 43.85083 47.41619 37911 ft 398 kts 266°
2026-04-22 09:43 43.84925 47.33958 37906 ft 398 kts 266°
2026-04-22 09:43 43.84765 47.26290 37899 ft 398 kts 266°
2026-04-22 09:44 43.84599 47.18625 37889 ft 398 kts 266°
2026-04-22 09:44 43.84427 47.10945 37887 ft 399 kts 266°
2026-04-22 09:45 43.84255 47.03270 37879 ft 399 kts 266°
2026-04-22 09:45 43.84072 46.95582 37879 ft 399 kts 265°
2026-04-22 09:46 43.83887 46.87903 37874 ft 399 kts 265°
2026-04-22 09:46 43.83692 46.80215 37874 ft 399 kts 265°
2026-04-22 09:47 43.83514 46.72525 37872 ft 400 kts 268°
2026-04-22 09:47 43.84193 46.64845 37871 ft 403 kts 276°
2026-04-22 09:48 43.85041 46.57175 37867 ft 403 kts 275°
2026-04-22 09:48 43.85880 46.49505 37866 ft 403 kts 275°
2026-04-22 09:49 43.86724 46.41783 37867 ft 403 kts 276°
2026-04-22 09:49 43.87559 46.34115 37869 ft 402 kts 276°
2026-04-22 09:50 43.88384 46.26443 37864 ft 402 kts 275°
2026-04-22 09:50 43.89191 46.18782 37865 ft 402 kts 275°
2026-04-22 09:51 43.90001 46.11115 37865 ft 401 kts 276°
2026-04-22 09:51 43.90810 46.03465 37872 ft 401 kts 275°
2026-04-22 09:52 43.91607 45.95813 37869 ft 400 kts 275°
2026-04-22 09:52 43.92286 45.88172 37870 ft 398 kts 269°
2026-04-22 09:53 43.92449 45.80509 37870 ft 397 kts 270°
2026-04-22 09:53 43.92615 45.72860 37867 ft 396 kts 270°
2026-04-22 09:54 43.92775 45.65226 37863 ft 396 kts 270°
2026-04-22 09:54 43.92925 45.57603 37865 ft 395 kts 270°
2026-04-22 09:55 43.93074 45.49998 37859 ft 394 kts 270°
2026-04-22 09:55 43.93219 45.42394 37860 ft 394 kts 269°
2026-04-22 09:56 43.93357 45.34751 37858 ft 393 kts 269°
2026-04-22 09:56 43.93489 45.27167 37863 ft 393 kts 270°
2026-04-22 09:57 43.93621 45.19588 37859 ft 393 kts 269°
2026-04-22 09:57 43.93744 45.12019 37860 ft 392 kts 269°
2026-04-22 09:58 43.93866 45.04450 37857 ft 392 kts 269°
2026-04-22 09:58 43.93981 44.96892 37858 ft 392 kts 269°
2026-04-22 09:59 43.94086 44.89344 37856 ft 391 kts 269°
2026-04-22 09:59 43.94186 44.81811 37858 ft 390 kts 269°
2026-04-22 10:00 43.94279 44.74292 37864 ft 390 kts 269°
2026-04-22 10:00 43.94372 44.66783 37865 ft 389 kts 269°
2026-04-22 10:01 43.94460 44.59282 37863 ft 388 kts 269°
2026-04-22 10:01 43.94538 44.51795 37862 ft 388 kts 269°
2026-04-22 10:02 43.94617 44.44315 37850 ft 387 kts 269°
2026-04-22 10:02 43.94696 44.36857 37843 ft 386 kts 269°
2026-04-22 10:03 43.94767 44.29406 37839 ft 387 kts 269°
2026-04-22 10:03 43.94827 44.21890 37845 ft 387 kts 269°
2026-04-22 10:04 43.94880 44.14418 37848 ft 387 kts 269°
2026-04-22 10:04 43.94932 44.06949 37845 ft 387 kts 269°
2026-04-22 10:05 43.94982 43.99473 37851 ft 387 kts 269°
2026-04-22 10:05 43.95026 43.91997 37854 ft 387 kts 269°
2026-04-22 10:06 43.95063 43.84523 37852 ft 387 kts 269°
2026-04-22 10:06 43.95098 43.77054 37859 ft 387 kts 269°
2026-04-22 10:07 43.95128 43.69581 37859 ft 387 kts 268°
2026-04-22 10:07 43.95149 43.62114 37868 ft 387 kts 268°
2026-04-22 10:08 43.95163 43.54645 37872 ft 387 kts 268°
2026-04-22 10:08 43.95179 43.47170 37877 ft 387 kts 268°
2026-04-22 10:09 43.95189 43.39695 37883 ft 388 kts 268°
2026-04-22 10:09 43.95192 43.32212 37900 ft 388 kts 268°
2026-04-22 10:10 43.95201 43.24721 37907 ft 389 kts 268°
2026-04-22 10:10 43.95198 43.17212 37912 ft 389 kts 268°
2026-04-22 10:11 43.95184 43.09703 37923 ft 390 kts 268°
2026-04-22 10:11 43.95168 43.02125 37922 ft 390 kts 268°
2026-04-22 10:12 43.95150 42.94591 37932 ft 391 kts 268°
2026-04-22 10:12 43.95132 42.88330 37933 ft 390 kts 268°
2026-04-22 10:13 43.95091 42.79520 37930 ft 391 kts 268°
2026-04-22 10:13 43.95058 42.73254 37932 ft 391 kts 268°
2026-04-22 10:14 43.95014 42.65711 37933 ft 391 kts 268°
2026-04-22 10:14 43.94927 42.58170 37938 ft 390 kts 267°
2026-04-22 10:15 43.94710 42.50640 37939 ft 391 kts 266°
2026-04-22 10:15 43.94465 42.43116 37943 ft 390 kts 266°
2026-04-22 10:16 43.94240 42.35608 37933 ft 390 kts 266°
2026-04-22 10:16 43.94018 42.28048 37939 ft 390 kts 266°
2026-04-22 10:17 43.93798 42.20540 37932 ft 389 kts 266°
2026-04-22 10:17 43.93570 42.13038 37941 ft 389 kts 266°
2026-04-22 10:18 43.93334 42.05541 37938 ft 389 kts 266°
2026-04-22 10:18 43.93093 41.98048 37937 ft 389 kts 266°
2026-04-22 10:19 43.92844 41.90554 37943 ft 389 kts 266°
2026-04-22 10:19 43.92585 41.83064 37939 ft 388 kts 266°
2026-04-22 10:20 43.92329 41.75575 37940 ft 389 kts 266°
2026-04-22 10:20 43.92075 41.68081 37941 ft 389 kts 266°
2026-04-22 10:21 43.91812 41.60586 37937 ft 389 kts 266°
2026-04-22 10:21 43.91542 41.53102 37941 ft 389 kts 266°
2026-04-22 10:22 43.91256 41.45616 37934 ft 389 kts 266°
2026-04-22 10:22 43.90958 41.38065 37636 ft 399 kts 266°
2026-04-22 10:23 43.90805 41.34234 37205 ft 396 kts 266°
2026-04-22 10:23 43.90656 41.30455 36783 ft 390 kts 266°
2026-04-22 10:23 43.90509 41.26730 36336 ft 385 kts 266°
2026-04-22 10:23 43.90360 41.23045 35903 ft 380 kts 266°
2026-04-22 10:24 43.90210 41.19368 35456 ft 375 kts 266°
2026-04-22 10:24 43.90064 41.15774 35018 ft 371 kts 266°
2026-04-22 10:24 43.89923 41.12231 34575 ft 367 kts 266°
2026-04-22 10:24 43.89780 41.08718 34139 ft 363 kts 266°
2026-04-22 10:25 43.89633 41.05239 33663 ft 359 kts 265°
2026-04-22 10:25 43.89484 41.01811 33234 ft 354 kts 265°
2026-04-22 10:25 43.89335 40.98435 32817 ft 348 kts 265°
2026-04-22 10:25 43.89188 40.95106 32410 ft 344 kts 265°
2026-04-22 10:26 43.89044 40.91821 32001 ft 339 kts 265°
2026-04-22 10:26 43.88905 40.88583 31610 ft 334 kts 265°
2026-04-22 10:26 43.88768 40.85387 31227 ft 330 kts 265°
2026-04-22 10:26 43.88631 40.82228 30845 ft 327 kts 265°
2026-04-22 10:27 43.88492 40.79103 30476 ft 323 kts 265°
2026-04-22 10:27 43.88356 40.76007 30113 ft 320 kts 265°
2026-04-22 10:27 43.88204 40.72936 29685 ft 318 kts 262°
2026-04-22 10:27 43.87739 40.69958 29263 ft 315 kts 252°
2026-04-22 10:28 43.86911 40.67177 28860 ft 311 kts 246°
2026-04-22 10:28 43.86035 40.64463 28491 ft 306 kts 247°
2026-04-22 10:28 43.85179 40.61782 28109 ft 301 kts 247°
2026-04-22 10:28 43.84343 40.59141 27737 ft 298 kts 247°
2026-04-22 10:29 43.83514 40.56527 27352 ft 295 kts 247°
2026-04-22 10:29 43.82687 40.53936 26961 ft 293 kts 247°
2026-04-22 10:29 43.81865 40.51367 26581 ft 291 kts 247°
2026-04-22 10:29 43.81046 40.48811 26195 ft 290 kts 247°
2026-04-22 10:30 43.80230 40.46259 25796 ft 289 kts 246°
2026-04-22 10:30 43.79418 40.43719 25400 ft 288 kts 247°
2026-04-22 10:30 43.78609 40.41192 24992 ft 287 kts 246°
2026-04-22 10:30 43.77800 40.38671 24568 ft 286 kts 246°
2026-04-22 10:31 43.76995 40.36167 24153 ft 285 kts 246°
2026-04-22 10:31 43.76192 40.33666 23731 ft 285 kts 246°
2026-04-22 10:31 43.75377 40.31124 23273 ft 285 kts 246°
2026-04-22 10:31 43.74572 40.28633 22825 ft 282 kts 246°
2026-04-22 10:32 43.73783 40.26193 22426 ft 281 kts 246°
2026-04-22 10:32 43.72973 40.23695 22020 ft 281 kts 246°
2026-04-22 10:32 43.72179 40.21245 21611 ft 278 kts 246°
2026-04-22 10:32 43.71394 40.18811 21229 ft 277 kts 246°
2026-04-22 10:33 43.70607 40.16374 20839 ft 277 kts 246°
2026-04-22 10:33 43.69808 40.13959 20458 ft 277 kts 243°
2026-04-22 10:33 43.68704 40.11776 20075 ft 280 kts 230°
2026-04-22 10:33 43.67178 40.09976 19972 ft 297 kts 217°
2026-04-22 10:34 43.65310 40.08649 19895 ft 305 kts 208°
2026-04-22 10:34 43.63370 40.07435 19808 ft 307 kts 208°
2026-04-22 10:34 43.61429 40.06217 19556 ft 306 kts 209°
2026-04-22 10:34 43.59494 40.05003 19310 ft 305 kts 209°
2026-04-22 10:35 43.57564 40.03794 19064 ft 305 kts 209°
2026-04-22 10:35 43.55633 40.02585 18821 ft 305 kts 208°
2026-04-22 10:35 43.53706 40.01381 18581 ft 304 kts 208°
2026-04-22 10:35 43.51782 40.00178 18342 ft 303 kts 208°
2026-04-22 10:36 43.49866 39.98982 17984 ft 302 kts 208°
2026-04-22 10:36 43.47954 39.97789 17557 ft 301 kts 208°
2026-04-22 10:36 43.46054 39.96602 17135 ft 300 kts 208°
2026-04-22 10:36 43.44096 39.95596 16707 ft 301 kts 202°
2026-04-22 10:37 43.42108 39.94685 16280 ft 301 kts 202°
2026-04-22 10:37 43.38131 39.92878 15423 ft 301 kts 202°
2026-04-22 10:37 43.36144 39.91975 15003 ft 301 kts 202°
2026-04-22 10:38 43.34155 39.91071 14571 ft 301 kts 202°
2026-04-22 10:38 43.32164 39.90165 14142 ft 301 kts 202°
2026-04-22 10:38 43.30173 39.89261 13706 ft 302 kts 202°
2026-04-22 10:38 43.28180 39.88359 13242 ft 301 kts 202°
2026-04-22 10:39 43.26170 39.87450 12811 ft 299 kts 202°
2026-04-22 10:39 43.24201 39.86556 12390 ft 297 kts 202°
2026-04-22 10:39 43.22244 39.85665 11960 ft 296 kts 201°
2026-04-22 10:39 43.20294 39.84777 11547 ft 295 kts 201°
2026-04-22 10:40 43.18349 39.83895 11139 ft 294 kts 201°
2026-04-22 10:40 43.16437 39.83034 10993 ft 285 kts 201°
2026-04-22 10:40 43.14565 39.82189 11003 ft 282 kts 201°
2026-04-22 10:40 43.12704 39.81344 11006 ft 282 kts 202°
2026-04-22 10:41 43.10843 39.80500 11009 ft 282 kts 201°
2026-04-22 10:41 43.08982 39.79658 11012 ft 282 kts 201°
2026-04-22 10:41 43.07118 39.78817 11013 ft 282 kts 201°
2026-04-22 10:41 43.05253 39.77974 11012 ft 282 kts 202°
2026-04-22 10:42 43.03393 39.77131 11013 ft 281 kts 203°
2026-04-22 10:42 43.01787 39.75716 11014 ft 275 kts 232°
2026-04-22 10:42 43.01051 39.73372 11012 ft 272 kts 265°
2026-04-22 10:42 43.01433 39.70868 11016 ft 276 kts 298°
2026-04-22 10:43 43.02822 39.69053 11014 ft 285 kts 330°
2026-04-22 10:43 43.04786 39.68561 11015 ft 296 kts
2026-04-22 10:43 43.06733 39.69547 11020 ft 305 kts 27°
2026-04-22 10:43 43.08568 39.71014 11013 ft 306 kts 28°
2026-04-22 10:44 43.10402 39.72489 11011 ft 306 kts 28°
2026-04-22 10:44 43.12232 39.73968 11011 ft 306 kts 28°
2026-04-22 10:44 43.14066 39.75453 11003 ft 306 kts 28°
2026-04-22 10:44 43.15907 39.76945 10588 ft 308 kts 28°
2026-04-22 10:45 43.17750 39.78441 10147 ft 308 kts 28°
2026-04-22 10:45 43.19592 39.79940 9693 ft 308 kts 28°
2026-04-22 10:45 43.21436 39.81446 9204 ft 307 kts 28°
2026-04-22 10:45 43.23254 39.82916 8743 ft 301 kts 28°
2026-04-22 10:46 43.25069 39.84330 8298 ft 299 kts 25°
2026-04-22 10:46 43.26395 39.84918 7998 ft 296 kts
2026-04-22 10:46 43.28412 39.84733 7569 ft 290 kts 340°
2026-04-22 10:46 43.30117 39.83365 7141 ft 283 kts 313°
2026-04-22 10:47 43.31153 39.81135 6717 ft 277 kts 285°
2026-04-22 10:47 43.31308 39.78561 6295 ft 270 kts 257°
2026-04-22 10:47 43.30564 39.76241 5845 ft 266 kts 230°
2026-04-22 10:47 43.29122 39.74705 5414 ft 264 kts 206°
2026-04-22 10:48 43.27495 39.73557 4978 ft 263 kts 207°
2026-04-22 10:48 43.25889 39.72358 4546 ft 263 kts 207°
2026-04-22 10:48 43.24282 39.71161 4097 ft 263 kts 206°
2026-04-22 10:48 43.22530 39.70569 3658 ft 261 kts 178°
2026-04-22 10:49 43.20811 39.71221 3226 ft 259 kts 149°
2026-04-22 10:49 43.19557 39.72950 2791 ft 259 kts 121°
2026-04-22 10:49 43.19011 39.75293 2348 ft 260 kts 96°
2026-04-22 10:49 43.19258 39.77686 2039 ft 250 kts 70°
2026-04-22 10:50 43.20167 39.79632 2000 ft 237 kts 47°
2026-04-22 10:50 43.21479 39.80865 2005 ft 223 kts 24°
2026-04-22 10:50 43.22939 39.81342 2002 ft 211 kts
2026-04-22 10:50 43.24382 39.81625 2011 ft 210 kts 10°
2026-04-22 10:51 43.25828 39.81916 2013 ft 209 kts 10°
2026-04-22 10:51 43.27249 39.82235 2001 ft 201 kts 17°
2026-04-22 10:51 43.28439 39.83110 2020 ft 192 kts 36°
2026-04-22 10:51 43.29591 39.84049 2007 ft 189 kts 32°
2026-04-22 10:52 43.30744 39.84928 2009 ft 189 kts 31°
2026-04-22 10:52 43.31892 39.85798 2008 ft 188 kts 31°
2026-04-22 10:52 43.33037 39.86669 2011 ft 189 kts 31°
2026-04-22 10:52 43.34186 39.87548 2001 ft 190 kts 31°
2026-04-22 10:53 43.35334 39.88393 1847 ft 182 kts 30°
2026-04-22 10:53 43.36432 39.89207 1589 ft 175 kts 31°
2026-04-22 10:53 43.37469 39.89982 1361 ft 164 kts 31°
2026-04-22 10:53 43.38438 39.90707 1145 ft 153 kts 29°
2026-04-22 10:54 43.39325 39.91372 950 ft 136 kts 28°
2026-04-22 10:54 43.40125 39.91968 768 ft 127 kts 28°
2026-04-22 10:54 43.40891 39.92546 580 ft 125 kts 28°
2026-04-22 10:54 43.41654 39.93124 417 ft 125 kts 28°
2026-04-22 10:55 43.42420 39.93691 300 ft 125 kts 28°
2026-04-22 10:55 43.43183 39.94270 168 ft 125 kts 29°
2026-04-22 10:55 43.43932 39.94848 73 ft 116 kts 25°
2026-04-22 10:55 43.44517 39.95271 82 ft 74 kts 29°
2026-04-22 10:56 43.44868 39.95539 89 ft 35 kts 28°
2026-04-22 10:56 43.45026 39.95531 91 ft 18 kts 331°
2026-04-22 10:56 43.45037 39.95399 90 ft 17 kts 247°
2026-04-22 10:56 43.44981 39.95246 87 ft 20 kts 245°
2026-04-22 10:57 43.44918 39.95059 81 ft 23 kts 244°
2026-04-22 10:57 43.44843 39.94844 74 ft 26 kts 245°
2026-04-22 10:57 43.44764 39.94613 72 ft 27 kts 245°
2026-04-22 10:57 43.44684 39.94379 67 ft 25 kts 244°
2026-04-22 10:58 43.44731 39.94275 75 ft 15 kts 335°
2026-04-22 10:58 43.44781 39.94243 72 ft 0 kts 335°